Regional Weather Roundup
Issued by NWS

Home | Current Version | Previous Version | Text Only | Print | Product List | Glossary On
Versions: 1 2 3 4 5 6 7 8 9 10 11 12 13 14 15 16 17 18 19 20 21 22 23 24 25 26 27 28 29 30 31 32 33 34 35 36 37 38 39 40 41 42 43 44 45 46 47 48 49 50
935
ASUS43 KDTX 101810
RWRMI
MICHIGAN HOURLY REGIONAL WEATHER ROUNDUP
NATIONAL WEATHER SERVICE DETROIT/PONTIAC MI
100 PM EST WED FEB 10 2016

NOTE: "FAIR" INDICATES FEW OR NO CLOUDS BELOW 12,000 FEET WITH NO
SIGNIFICANT WEATHER AND/OR OBSTRUCTION TO VISIBILITY.

MIZ047>049-052>055-059>063-066>070-074>076-081>083-101900-
SOUTHEAST LOWER MICHIGAN

CITY           SKY/WX    TMP DP  RH WIND       PRES   REMARKS
ADRIAN         LGT SNOW  19  13  77 NW16G23   29.86S WCI   4
6HR MIN TEMP:  18; 6HR MAX TEMP:  22; 6HR PCP: TRACE;

ALMA           LGT SNOW  19  13  80 NW9G20    29.85F WCI   7
6HR MIN TEMP:  18; 6HR MAX TEMP:  21;

ANN ARBOR      LGT SNOW  19   8  62 NW14G23   29.83F WCI   6
BAD AXE        CLOUDY    13   8  78 NW12G18   29.81S WCI   0
CARO           CLOUDY    16   7  67 W6        29.82F WCI   7
DETROIT CITY   CLOUDY    20   9  62 NW9G18    29.83S WCI   9
6HR MIN TEMP:  19; 6HR MAX TEMP:  21; 6HR PCP: TRACE;

DETROIT        CLOUDY    21   5  50 W15G25    29.84F WCI   8
6HR MIN TEMP:  19; 6HR MAX TEMP:  22; 6HR PCP:  0.01;

FLINT          CLOUDY    20   7  57 NW14      29.83F WCI   7
6HR MIN TEMP:  18; 6HR MAX TEMP:  20; 6HR PCP:  0.01;

GROSSE ILE     CLOUDY    21   7  53 NW15G21   29.82F WCI   8
HILLSDALE      CLOUDY    21   8  59 W20G26    29.83F WCI   5
6HR MIN TEMP:  17; 6HR MAX TEMP:  22;

HOWELL         LGT SNOW  19  11  69 NW13G20   29.82F WCI   6
6HR MIN TEMP:  17; 6HR MAX TEMP:  20;


CITY           SKY/WX    TMP DP  RH WIND       PRES   REMARKS
JACKSON        LGT SNOW  18  10  71 NW14G23   29.84F VSB 3/4 WCI   4
6HR MIN TEMP:  17; 6HR MAX TEMP:  20; 6HR PCP:  0.01;

LAMBERTVILLE   LGT SNOW  21  16  80 NW8G17    29.87S WCI  11
6HR MIN TEMP:  19; 6HR MAX TEMP:  24;

LANSING        CLOUDY    19   8  62 NW16G25   29.85F WCI   4
6HR MIN TEMP:  17; 6HR MAX TEMP:  19; 6HR PCP:  0.01;

LAPEER         CLOUDY    16   8  72 NW12G17   29.81F WCI   3
6HR MIN TEMP:  14; 6HR MAX TEMP:  17;

MASON          CLOUDY    19   9  63 W12G17    29.84F WCI   7
MONROE         CLOUDY    23   9  55 NW16G22   29.84F WCI   9
6HR MIN TEMP:  20; 6HR MAX TEMP:  23;

MT. CLEMENS    FLURRIES  19   9  65 NW15      29.80F WCI   4
6HR MIN TEMP:  18; 6HR MAX TEMP:  21; 6HR PCP: TRACE;

PONTIAC        LGT SNOW  16   9  74 NW13      29.79F BLWGSNOWWCI   2
6HR MIN TEMP:  16; 6HR MAX TEMP:  18; 6HR PCP: TRACE;

PORT HOPE        N/A     14   8  77 NW15G24   29.78S WCI  -1
6HR MIN TEMP:  13; 6HR MAX TEMP:  19; 6HR PCP:  1.13;

PORT HURON     LGT SNOW  16   9  73 NW15G21   29.81S WCI   1
TRI CITIES     CLOUDY    19   6  57 NW15      29.84F WCI   5
6HR MIN TEMP:  15; 6HR MAX TEMP:  19; 6HR PCP: TRACE;

MIDLAND        CLOUDY    19   5  55 NW9G16    29.83F WCI   7
6HR MIN TEMP:  14; 6HR MAX TEMP:  19;

TROY           CLOUDY    21   9  60 W15G24    29.84S WCI   8
SAGINAW HB     CLOUDY    19  10  68 NW13      29.83F WCI   7
$$
MIZ043>046-050>051-056>058-064>065-071>073-077>080-101900-
SOUTHWEST LOWER MICHIGAN

CITY           SKY/WX    TMP DP  RH WIND       PRES   REMARKS
BATTLE CREEK   LGT SNOW  18  11  74 NW14      29.87F WCI   4
6HR MIN TEMP:  17; 6HR MAX TEMP:  22; 6HR PCP: TRACE;

BENTON HARBOR  CLOUDY    20   6  55 W15G21    29.95F WCI   6
6HR MIN TEMP:  18; 6HR MAX TEMP:  21; 6HR PCP:  0.05;

BIG RAPIDS     CLOUDY    18   1  46 NW9G20    29.83F WCI   7
6HR MIN TEMP:  15; 6HR MAX TEMP:  19;

COLDWATER      CLOUDY    21  10  61 NW14G23   29.86F WCI   8
6HR MIN TEMP:  18; 6HR MAX TEMP:  21;

FREMONT        CLOUDY    19   4  52 N12G20    29.89F WCI   7
HOLLAND        LGT SNOW  18  10  71 NW10G22   29.92F VSB 3/4 WCI   6
6HR MIN TEMP:  18; 6HR MAX TEMP:  20; 6HR PCP:  0.11;

GRAND RAPIDS   CLOUDY    20   7  57 NW20G25   29.88F WCI   4
6HR MIN TEMP:  18; 6HR MAX TEMP:  21; 6HR PCP: TRACE;

IONIA          CLOUDY    19   6  58 W13       29.85F WCI   6
6HR MIN TEMP:  17; 6HR MAX TEMP:  20;

KALAMAZOO      LGT SNOW  20   9  62 NW17G26   29.89F WCI   5
6HR MIN TEMP:  18; 6HR MAX TEMP:  21; 6HR PCP: TRACE;

LUDINGTON      LGT SNOW  15   7  69 N16G22    29.93F WCI  -1
6HR MIN TEMP:  15; 6HR MAX TEMP:  17;

MARSHALL       LGT SNOW  20  10  64 W12       29.86S WCI   8
6HR MIN TEMP:  17; 6HR MAX TEMP:  24;

MOUNT PLEASANT CLOUDY    22   5  49 NW13G23   29.83S WCI  10
6HR MIN TEMP:  17; 6HR MAX TEMP:  22;

MUSKEGON       LGT SNOW  19   8  62 NW12G21   29.93F WCI   7
6HR MIN TEMP:  17; 6HR MAX TEMP:  22; 6HR PCP:  0.01;

SOUTH HAVEN    CLOUDY    20  11  68 NW14G23   29.94S HAZE    WCI   7
$$
MIZ016>042-101900-
NORTHERN LOWER MICHIGAN

CITY           SKY/WX    TMP DP  RH WIND       PRES   REMARKS
ALPENA         CLOUDY    10   0  63 NW16G24   29.81F WCI  -7
6HR MIN TEMP:   8; 6HR MAX TEMP:  11; 6HR PCP:  0.03;

BEAVER ISLAND  CLOUDY    12   1  59 N14G20    29.89F HAZE    WCI  -3
6HR MIN TEMP:  11; 6HR MAX TEMP:  13;

BELLAIRE       CLOUDY    15   0  52 N8G21     29.88F WCI   4
6HR MIN TEMP:  13; 6HR MAX TEMP:  16;

CADILLAC       LGT SNOW  13   7  74 NW15G23   29.80S VSB 1   WCI  -2
CHARLEVOIX     LGT SNOW  13   6  73 N16G24    29.90S VSB 3/4 WCI  -3
6HR MIN TEMP:  12; 6HR MAX TEMP:  14;

FRANKFORT      LGT SNOW  15   9  78 NW10G24   29.91S VSB 3/4 WCI   2
GRAYLING       CLOUDY    13   4  67 NW9       29.81S HAZE    WCI   0
HARBOR SPRINGS CLOUDY    11  -1  58 NW16G23   29.86S HAZE    WCI  -5
HOUGHTON LAKE  CLOUDY    16   0  49 NW12G21   29.79F WCI   3
6HR MIN TEMP:  10; 6HR MAX TEMP:  16; 6HR PCP: TRACE;

MANISTEE       CLOUDY    16   3  57 NW15G25   29.91F WCI   1
OSCODA         CLOUDY    12   2  65 NW14G21   29.81S WCI  -3
6HR MIN TEMP:   9; 6HR MAX TEMP:  12;

PELLSTON       PTSUNNY   10   0  63 NW20G26   29.87S WCI  -9
6HR MIN TEMP:   6; 6HR MAX TEMP:  10;

ROGERS CITY    CLOUDY     9   1  69 NW12G22   29.83F HAZE    WCI  -5
TRAVERSE CITY  LGT SNOW  16   3  56 N17G25    29.88S WCI   0
6HR MIN TEMP:  15; 6HR MAX TEMP:  17; 6HR PCP: TRACE;

$$
MIZ007>008-015-101900-
EASTERN UPPER MICHIGAN

CITY           SKY/WX    TMP DP  RH WIND       PRES   REMARKS
KINROSS        MOSUNNY    9   0  66 N16G25    29.84F WCI  -9
6HR MIN TEMP:   1; 6HR MAX TEMP:   9;

MACKINAC ISLAN CLOUDY    11   1  63 NW15G25   29.84F WCI  -5
6HR MIN TEMP:   6; 6HR MAX TEMP:  11;

NEWBERRY       CLOUDY     9   2  72 N16G23    29.87S HAZE    WCI  -8
6HR MIN TEMP:   6; 6HR MAX TEMP:  10;

S. S. MARIE    SUNNY      6  -9  50 NW14      29.86R WCI -11
6HR MIN TEMP:   1; 6HR MAX TEMP:   6; 6HR PCP: TRACE;

MUNISING         N/A     12   5  73 N24G30    29.94F WCI  -8
6HR MIN TEMP:  10; 6HR MAX TEMP:  12; 6HR PCP:  0.02;

$$
MIZ004>006-011>014-085-101900-
CENTRAL UPPER MICHIGAN

CITY           SKY/WX    TMP DP  RH WIND       PRES   REMARKS
MANISTIQUE     CLOUDY    12   3  68 N14G21    29.91S HAZE    WCI  -4
6HR MIN TEMP:   8; 6HR MAX TEMP:  13;

ESCANABA       PTSUNNY   14   0  52 NW10G26   29.96S WCI   1
6HR MIN TEMP:   7; 6HR MAX TEMP:  14;

MENOMINEE      SUNNY     12  -6  44 N12G22    29.99S WCI  -2
6HR MIN TEMP:   5; 6HR MAX TEMP:  12;

SAWYER-GWINN   SNOW       7   3  85 N16G28    29.91S VSB 1/2 WCI -11
$$
MIZ001>003-009>011-084-101900-
WESTERN UPPER MICHIGAN

CITY           SKY/WX    TMP DP  RH WIND       PRES   REMARKS
IRON MOUNTAIN  MOSUNNY    8  -6  52 NW16G23   29.95F WCI -10
6HR MIN TEMP:   1; 6HR MAX TEMP:   9; 6HR PCP: TRACE;

HOUGHTON       SNOW       6   0  76 N10       30.00S VSB 1/2 WCI  -9
6HR MIN TEMP:   4; 6HR MAX TEMP:   7; 6HR PCP: TRACE;

COPPER HARBOR    N/A     10   4  76 NE20G28   30.02S WCI  -9
6HR MIN TEMP:   9; 6HR MAX TEMP:  11;

IRONWOOD       CLOUDY     7   1  78 N8        30.02S WCI  -6
6HR MIN TEMP:   3; 6HR MAX TEMP:   9;

$$

ABBREVIATIONS USED IN REMARKS
   TC - TEMPERATURE IN CELSIUS
  WCI - WIND CHILL INDEX
   HX - HEAT INDEX
  VSB - VISIBILITY





USA.gov is the U.S. government's official web portal to all federal, state and local government web resources and services.